Current weather by "City, St" or "zip code"  
 

Current Conditions: Faribault, Faribault Municipal Airport, MN

Mostly Cloudy


28.0 F

Last Updated on Oct 24 2020, 10:55 am CDT
Humidity: 74%
Wind Speed: N 3.5 mph
Barometer 30.35 in
Dewpoint: 21.2 F
Visibility: 10.00 mi
Precip: --
Heat Index: NA
Wind Chill: NA
Current conditions at:

Faribault, Faribault Municipal Airport, MN (KFBL)

Lat: 44.32983 Lon: 93.31186

Local Radar Image active severe weather and emergency alerts image image weather storm and storm spotter reports image weather observation monitoring service image
Local
Radar
Active
Alerts
Storm Reports Obs
Monitoring

Sign-up For Email & Text Message Weather Alert Notification Services



Advertise Here

Observation History for Faribault, Faribault Municipal Airport, MN


Time Wind
(mph)
Vis
(mi)
Weather Precip (in) Temperature (F) Relative
Humidity
Wind
Chill
(F)
Heat
Index
(F)
Pressure
Air Dwpt altimeter
(in)
sea level
(mb)
Rmks
10:55 am CDT N 3.5 10.00 Mostly Cloudy -- 28.0 21.2 74% NA NA 30.35 M
9:55 am CDT N 0.0 10.00 Partly Cloudy -- 25.0 21.2 86% NA NA 30.36 M
8:55 am CDT W 4.6 10.00 Fair -- 25.0 21.2 86% 19 NA 30.36 M
7:55 am CDT SW 3.5 10.00 Fair -- 21.0 19.4 93% NA NA 30.35 M
6:55 am CDT N 0.0 10.00 Fair -- 21.0 19.4 93% NA NA 30.35 M
5:55 am CDT SW 3.5 10.00 Fair -- 21.0 19.4 93% NA NA 30.35 M
4:55 am CDT N 0.0 10.00 Fair -- 21.0 19.4 93% NA NA 30.36 M
3:55 am CDT W 3.5 10.00 Fair -- 21.0 19.4 93% NA NA 30.34 M
2:55 am CDT NW 4.6 10.00 Fair -- 21.0 19.4 93% 15 NA 30.33 M
1:55 am CDT NW 4.6 10.00 Fair -- 21.0 19.4 93% 15 NA 30.34 M
12:55 am CDT W 5.8 10.00 Fair -- 23.0 19.4 86% 16 NA 30.34 M
11:55 pm CDT W 8.1 10.00 Fair -- 25.0 19.4 80% 16 NA 30.36 M
10:55 pm CDT W 9.2 10.00 Fair -- 27.0 19.4 74% 18 NA 30.37 M
9:55 pm CDT W 9.2 10.00 Partly Cloudy -- 28.0 24.8 86% 19 NA 30.35 M
8:55 pm CDT W 10.4 G 19.6 10.00 Mostly Cloudy -- 30.0 24.8 80% 21 NA 30.35 M
7:55 pm CDT W 12.7 G 17.3 10.00 Overcast -- 34.0 26.6 75% 25 NA 30.35 M
6:55 pm CDT W 11.5 10.00 Overcast -- 34.0 26.6 75% 26 NA 30.34 M
5:55 pm CDT W 5.8 10.00 Overcast -- 34.0 30.2 87% 29 NA 30.32 M
4:55 pm CDT NW 8.1 10.00 Overcast -- 36.0 28.4 75% 30 NA 30.31 M
3:55 pm CDT NW 9.2 10.00 Overcast -- 36.0 30.2 81% 29 NA 30.29 M
2:55 pm CDT NW 8.1 10.00 Overcast -- 36.0 30.2 81% 30 NA 30.28 M
1:55 pm CDT NW 10.4 G 19.6 10.00 Overcast -- 36.0 30.2 81% 28 NA 30.28 M
12:55 pm CDT NW 9.2 10.00 Overcast -- 36.0 32.0 87% 29 NA 30.28 M
11:55 am CDT NW 9.2 10.00 Overcast -- 36.0 33.8 93% 29 NA 30.27 M

Regional Weather Observation


Faribault, Faribault Municipal Airport, MN (KFBL)

Mostly Cloudy
28.0 F

Minneapolis - Flying Cloud Airport, MN (KFCM)

Overcast
27.0 F

Stanton Airfield, MN (KSYN)

Overcast
27.0 F

Minneapolis, Minneapolis-St. Paul International Airport, MN (KMSP)

Overcast
28.0 F

Mankato, Mankato Regional Airport, MN (KMKT)

Fair
27.0 F

South St. Paul Municipal-Richard E. Flemi, MN (KSGS)

Fair
28.0 F